Temp
21 20 20 20 20 20 20 19 19 18 19 18 18 18 18 18 19 18 18 18 18 18 18 18 18 18 18 18 19 19 18 19 15 14 14 14 14 14 14 14 14 14 14
21 20 20 20 20 19 19 19 19 19 19 19 18 18 18 18 17 17 18 17 18 18 18 18 18 18 18 18 18 18 18 18 16 14 13 13 13 13 14 14 13 14 13
21 20 20 20 20 20 19 19 19 19 19 19 19 18 18 18 17 17 17 17 17 17 17 18 18 18 17 17 18 17 17 17 16 14 13 13 12 12 12 13 13 12 13
21 21 20 20 20 20 20 19 19 19 19 19 19 18 18 18 17 17 17 16 16 16 16 17 17 17 17 17 17 17 16 16 15 14 13 12 12 12 13 12 12 12 12
21 21 21 20 20 20 19 19 19 19 19 19 19 18 18 18 18 17 17 16 16 16 16 16 16 17 17 16 16 16 16 15 14 13 13 12 12 12 12 12 13 12 12
21 21 20 20 20 20 19 19 19 20 20 19 19 18 18 18 18 18 17 17 16 16 16 16 16 17 17 17 16 15 16 15 15 14 14 13 12 12 12 12 11 12 15
21 21 20 20 20 19 19 19 19 18 18 18 18 18 18 18 18 18 18 17 17 16 16 16 17 16 16 15 16 14 14 15 15 15 15 15 14 13 13 12 12 14 17
21 21 20 20 20 19 19 19 18 18 18 17 18 18 17 17 17 17 17 16 16 16 16 16 16 15 15 15 15 15 15 15 14 15 15 15 15 14 14 14 13 14 14
21 21 20 20 20 19 18 18 18 17 17 17 17 17 17 16 17 16 16 16 16 16 16 16 15 15 16 16 16 15 15 15 15 15 15 15 15 15 14 14 15 16 16
21 21 20 20 19 18 18 18 17 18 17 17 16 16 16 16 16 16 16 17 16 17 15 16 16 15 16 16 16 16 16 15 15 14 15 15 15 14 14 15 16 17 17
20 19 19 19 18 18 18 17 17 17 16 17 16 16 16 15 15 15 16 16 17 16 16 16 16 16 16 16 16 15 16 15 15 14 15 14 14 14 14 14 14 16 17
19 18 18 17 17 17 17 17 17 17 17 16 16 16 15 15 15 16 15 15 15 15 16 16 16 16 16 16 16 16 16 16 15 16 16 16 16 16 15 14 14 14 14
17 17 16 17 16 17 16 16 16 16 17 16 16 17 17 15 16 15 15 15 15 15 15 16 16 16 16 15 16 15 15 15 15 16 16 16 16 16 14 14 14 14 14
16 16 16 17 16 16 16 17 17 16 16 16 16 16 16 16 16 15 15 15 15 15 15 15 15 16 15 15 15 14 14 14 15 16 16 17 16 14 14 14 15 14 15
17 17 17 17 16 16 15 16 16 16 16 15 15 15 15 16 16 16 16 16 16 16 15 14 13 13 14 14 14 14 13 14 13 14 15 15 15 15 15 14 14 15 15
17 17 18 18 17 17 16 17 16 16 17 17 16 16 15 15 15 15 15 15 15 15 13 13 12 13 14 14 13 14 14 14 14 14 14 14 15 15 15 14 13 14 15
17 17 17 17 18 18 17 17 18 17 17 17 16 16 17 16 15 15 15 15 14 13 12 13 12 13 14 13 13 13 14 14 14 13 14 14 14 14 13 14 14 14 15
17 17 18 18 18 18 18 18 18 18 18 18 16 16 16 16 16 15 15 15 14 13 12 12 12 13 13 12 13 13 13 13 13 13 14 15 15 15 15 15 15 15 15
17 18 18 18 17 18 17 18 18 18 18 18 18 17 16 16 16 16 15 14 13 13 12 11 11 12 12 12 12 12 12 11 12 11 12 14 15 15 16 16 16 15 15
17 16 16 17 18 18 18 18 19 18 18 18 18 18 17 15 17 17 14 12 13 12 12 12 12 11 12 12 11 11 10 10 10 10 11 13 15 15 16 16 16 16 15
16 16 15 15 16 17 18 18 18 18 18 19 19 18 16 16 17 17 17 16 14 14 13 13 12 12 11 11 11 10 11 11 11 10 10 11 14 15 15 16 16 16 16
14 15 14 16 16 16 17 17 17 17 17 18 17 16 16 16 16 16 16 15 15 14 14 14 14 14 14 14 13 11 11 11 11 10 11 10 12 12 13 14 15 16 16
13 12 13 14 14 14 16 16 16 16 17 17 17 16 16 16 15 15 14 14 13 13 13 13 13 14 14 14 14 13 14 14 14 12 10 10 10 11 12 12 12 12 14
10 12 12 12 12 14 15 15 15 14 14 15 15 15 14 14 14 13 12 12 12 12 12 12 12 12 12 12 12 12 12 12 12 12 11 11 11 10 9 10 11 9 12
10 10 10 11 11 12 13 13 13 13 13 13 13 12 12 12 12 11 11 11 11 11 10 10 10 10 10 10 10 11 11 10 10 10 10 10 10 9 9 8 9 9 9
10 10 10 10 10 10 10 10 10 10 10 10 10 10 9 9 9 9 9 9 9 9 9 9 9 9 9 10 10 10 9 9 9 9 9 8 8 9 9 8 8 8 8
Height
784 785 787 789 793 797 798 799 801 802 802 802 802 803 805 804 805 805 807 806 806 807 806 805 805 804 804 805 807 809 813 815 821 827 830 833 835 837 838 840 842 844 843
782 783 787 788 791 796 798 799 799 799 800 801 802 804 804 805 804 804 806 806 805 804 804 804 805 802 802 803 805 808 810 814 817 823 829 832 835 837 838 840 842 844 845
781 784 787 788 790 793 796 797 798 799 798 798 799 802 802 802 803 803 803 804 805 804 804 803 803 802 801 802 804 807 810 813 814 819 826 830 833 836 838 840 842 843 845
779 782 784 786 789 791 793 793 794 797 798 797 796 798 800 802 803 803 802 804 804 804 804 803 802 801 801 802 803 806 809 812 815 818 824 828 832 835 837 840 844 846 847
776 778 782 785 788 790 791 792 793 794 797 798 798 797 797 800 802 803 803 802 803 804 803 802 803 802 802 802 804 805 808 811 814 817 821 826 829 833 835 838 842 844 846
775 778 781 783 787 788 791 791 792 793 792 794 795 796 797 798 799 800 803 803 803 805 804 802 802 803 802 803 804 804 807 810 813 816 819 822 825 828 832 835 838 841 843
775 779 781 781 783 786 788 789 791 792 792 793 793 794 796 797 798 799 801 804 805 805 805 805 804 804 804 804 803 805 807 810 813 816 818 820 823 824 828 833 836 838 837
774 777 779 780 782 784 786 788 789 790 791 792 792 791 794 795 796 798 800 803 804 806 805 804 805 805 805 805 806 807 808 810 813 815 817 819 821 822 825 829 832 836 837
774 777 778 779 781 782 784 784 786 786 787 788 790 789 788 791 794 797 799 801 803 804 805 804 805 805 804 805 806 806 808 810 811 813 815 817 819 821 825 828 831 832 833
772 773 775 776 777 778 780 781 782 783 784 784 785 787 788 788 789 793 797 799 800 802 804 803 804 804 804 805 806 807 808 810 812 812 814 817 818 820 823 825 827 828 829
768 772 773 774 775 778 779 781 781 781 781 781 782 782 783 785 788 791 794 797 799 800 802 802 803 803 804 804 805 806 808 809 810 812 814 816 818 819 821 822 824 825 825
762 769 772 773 776 779 780 780 779 780 778 777 779 779 779 782 786 787 791 793 795 798 798 798 799 800 801 802 803 805 806 808 810 812 813 814 816 817 818 819 820 822 823
766 770 770 772 777 778 780 779 778 779 778 777 776 778 779 778 779 783 786 789 791 793 795 796 797 798 799 800 801 804 805 806 808 809 810 811 812 814 815 816 818 818 820
771 772 771 774 778 778 781 780 777 776 773 775 776 776 776 777 777 778 781 784 786 788 790 791 793 794 796 797 797 798 801 803 804 805 806 807 810 811 812 813 815 816 817
770 771 772 773 776 778 778 778 774 772 771 772 774 774 775 775 775 775 777 778 780 781 785 787 787 788 790 792 793 793 794 796 798 799 801 802 804 806 808 809 810 811 812
768 771 771 772 774 777 774 774 770 773 771 773 772 773 772 772 772 770 770 770 771 775 777 779 781 782 783 784 785 786 788 788 789 792 794 795 797 799 800 802 804 805 808
760 766 771 773 773 773 770 770 768 771 769 770 771 772 769 770 768 767 766 766 767 769 770 772 774 776 776 778 778 777 778 780 782 784 787 789 790 792 793 795 797 799 802
762 764 770 770 770 769 767 766 766 768 766 767 765 767 766 765 764 763 760 759 761 762 764 766 766 767 767 768 771 768 771 770 774 778 780 782 782 784 787 791 791 792 795
763 765 768 767 767 767 766 764 765 765 762 763 762 762 761 760 759 759 760 758 756 758 759 760 762 761 762 764 765 767 768 770 769 772 776 775 775 775 777 780 783 786 788
763 763 763 763 762 763 764 763 762 761 760 759 757 758 757 756 756 756 756 754 752 753 755 755 755 757 758 757 758 758 760 760 761 764 769 771 770 770 770 772 775 776 779
762 761 760 759 760 761 760 759 756 756 755 754 754 756 755 754 753 753 754 753 753 750 752 753 754 753 755 755 755 755 754 755 756 757 761 762 765 763 764 764 766 768 769
761 758 758 759 760 761 760 755 752 752 752 752 753 755 754 753 752 753 754 752 751 749 747 748 750 752 752 754 753 753 753 751 750 751 751 753 752 757 758 758 757 758 759
759 758 758 760 759 756 754 754 752 749 747 749 751 753 753 753 754 752 753 753 753 751 750 750 748 749 750 750 749 748 748 746 746 746 746 744 745 747 750 750 753 754 752
761 759 758 757 754 752 751 750 750 750 750 752 754 754 753 754 755 756 757 755 755 754 753 751 751 751 750 747 745 746 746 744 743 743 742 740 740 739 739 737 735 741 744
757 756 754 755 753 751 751 749 750 752 753 754 757 758 758 758 758 757 757 757 757 755 754 752 752 751 750 747 743 743 742 740 738 738 737 735 734 732 731 730 730 731 735
757 756 756 756 755 754 755 755 757 759 759 760 762 763 763 763 764 759 758 760 761 759 756 756 751 749 750 747 744 741 738 736 735 733 732 730 729 727 725 724 724 722 721
Wind_Speed
11 10 9 8 8 10 8 7 6 4 4 4 3 3 2 1 2 2 2 2 2 3 2 1 2 3 5 11 10 11 13 14 8 6 16 15 14 13 13 13 11 10 11
9 10 11 9 9 10 9 7 6 8 7 6 4 4 4 2 1 2 3 3 1 1 2 1 1 1 4 7 11 13 16 13 14 15 17 15 14 12 14 14 11 10 10
10 11 11 10 11 11 9 9 8 8 8 7 7 5 4 2 1 1 2 3 3 1 2 2 1 1 3 6 8 11 17 13 16 19 13 17 16 15 14 12 12 14 11
11 13 12 12 12 11 11 10 9 8 8 8 9 8 6 4 3 3 3 3 2 1 1 1 1 1 3 8 8 11 14 14 15 21 17 15 15 16 15 13 11 9 11
13 13 13 12 12 12 11 9 9 9 7 8 9 8 8 7 4 2 2 4 3 2 2 3 3 2 4 6 8 10 12 12 14 19 17 14 15 18 16 13 11 14 10
12 13 14 14 13 12 12 11 12 14 14 14 11 9 9 7 7 4 4 4 4 3 3 3 4 3 4 5 7 11 11 13 14 13 13 16 17 16 16 19 17 12 9
11 11 15 15 14 13 12 11 13 14 15 15 13 12 11 8 8 7 6 5 4 3 3 3 4 4 5 7 7 8 8 10 11 11 13 17 16 18 19 19 14 14 9
12 14 15 14 14 11 10 11 13 12 12 11 14 14 13 9 9 10 9 6 5 4 3 3 3 4 5 7 8 8 8 7 7 7 9 12 11 14 19 17 18 12 6
13 13 13 13 12 11 11 11 9 9 11 13 14 17 18 14 10 12 13 9 8 7 5 6 4 5 6 8 8 9 8 7 7 8 9 10 11 13 15 13 15 14 11
13 12 10 11 11 11 10 10 7 7 8 7 5 9 9 13 14 10 16 11 9 8 8 9 8 7 8 8 7 8 8 9 9 9 10 10 11 13 15 12 13 14 12
10 7 7 6 7 8 9 8 6 7 7 7 5 4 5 12 13 12 13 12 10 9 9 9 9 11 11 10 8 8 7 10 11 9 9 9 10 11 12 13 11 12 12
12 9 7 6 6 7 7 6 4 6 6 6 5 4 5 7 10 12 15 16 15 13 13 11 10 13 14 13 12 11 10 10 10 11 11 12 12 11 10 9 11 11 11
9 8 9 8 6 5 6 6 5 4 3 2 4 5 5 7 10 14 16 18 18 19 17 14 13 13 16 16 15 14 13 13 13 14 15 14 14 11 11 10 10 9 7
5 8 9 7 5 4 4 5 4 5 3 4 6 7 8 7 8 12 16 19 22 24 23 20 18 16 18 19 19 21 18 16 17 17 17 15 13 13 14 13 12 11 10
8 7 7 6 6 6 5 3 2 3 4 1 5 8 10 10 11 14 17 19 23 26 26 20 15 14 16 17 17 17 18 18 20 19 18 17 18 17 17 16 15 13 13
12 9 8 7 8 8 5 2 2 2 0 3 4 6 6 9 10 11 13 14 19 23 24 22 20 20 21 21 22 21 21 21 21 21 21 20 20 21 20 18 17 15 15
13 9 6 7 7 5 3 1 2 2 3 4 5 7 7 8 7 8 9 13 15 18 21 20 23 21 22 24 25 26 23 23 24 21 20 18 17 17 19 18 18 18 17
8 10 7 6 4 3 3 2 1 4 3 4 6 9 8 8 9 11 9 9 11 11 21 21 22 23 24 24 23 24 26 26 26 24 21 21 19 18 17 19 19 20 20
6 6 6 5 5 5 4 3 5 6 5 6 5 7 7 8 10 11 11 9 9 13 16 22 25 24 24 23 23 21 18 17 17 20 23 23 23 22 22 22 22 23 23
5 8 9 9 7 9 9 9 9 7 7 6 6 7 3 5 8 9 8 8 9 10 11 16 18 21 28 29 26 27 27 24 25 26 25 24 24 24 25 23 24 23 23
1 2 4 4 6 9 11 12 11 10 9 7 6 5 8 6 9 10 11 9 9 8 9 10 12 13 16 20 20 21 22 24 24 28 29 27 26 26 27 26 26 26 24
6 4 4 5 6 6 6 6 6 9 9 8 7 6 11 8 8 9 10 9 8 7 8 9 9 11 11 13 13 14 15 16 19 26 29 29 28 25 26 25 27 28 27
7 6 6 7 6 7 5 4 4 3 3 3 4 6 8 10 10 10 11 12 12 11 9 8 8 9 10 12 13 14 16 17 18 18 23 27 25 26 28 27 24 25 29
1 1 2 2 3 3 1 4 7 9 9 8 8 9 11 11 12 14 14 14 13 13 11 10 9 10 11 11 11 13 15 16 16 17 19 23 26 27 31 32 29 29 29
10 9 8 7 8 10 11 13 13 13 13 13 13 13 12 12 12 13 13 13 13 12 14 14 14 14 14 15 14 13 11 12 12 17 21 23 25 24 25 26 26 25 27
16 16 15 14 16 17 17 18 18 18 18 17 14 15 15 12 11 14 14 13 12 12 13 13 14 15 16 17 17 16 14 15 15 15 16 18 21 24 24 27 29 29 29
Wind_Direction
193 199 202 198 204 208 202 200 196 198 174 162 168 158 175 209 292 289 261 262 242 247 264 289 280 225 221 202 189 190 172 171 129 114 149 156 150 147 141 135 118 122 119
194 194 199 194 191 202 196 195 190 169 170 164 157 184 181 196 192 202 229 229 236 236 267 265 268 164 183 191 192 184 181 180 151 143 153 158 158 155 149 142 130 127 123
183 182 188 186 191 198 202 197 196 197 196 194 193 188 188 208 253 226 240 252 240 223 203 206 215 156 162 170 169 177 183 183 176 160 154 167 159 161 149 143 143 135 131
183 186 187 189 197 198 199 206 209 216 212 195 184 182 185 192 209 231 201 212 228 206 153 62 62 147 158 170 165 171 175 168 173 158 154 158 161 168 162 149 146 151 148
185 188 192 194 200 200 206 212 205 209 220 221 212 193 186 193 202 211 173 159 169 181 137 91 62 136 161 168 168 170 170 163 161 155 154 159 164 165 173 174 169 164 161
188 196 195 191 199 200 208 208 213 220 220 222 217 213 200 194 208 193 175 159 150 170 165 131 113 118 152 155 179 175 184 174 167 165 169 173 176 182 181 181 173 166 178
189 199 198 194 199 209 213 219 226 226 224 226 222 220 215 202 214 201 187 178 170 163 154 157 132 133 125 135 141 141 162 180 182 182 189 191 183 191 183 184 187 191 200
191 196 197 198 202 210 217 235 237 234 234 238 236 235 229 220 222 214 205 200 196 199 184 161 174 158 149 144 144 140 140 153 176 191 202 205 196 194 197 193 192 188 173
192 200 200 204 208 207 218 233 227 236 245 244 254 247 222 218 220 220 212 212 215 221 229 211 192 185 184 163 154 149 150 152 181 191 185 195 199 191 183 179 185 195 193
195 199 199 203 205 215 210 203 197 210 223 252 217 250 246 234 224 225 218 224 227 228 231 226 217 204 193 183 179 174 174 175 165 158 166 177 174 178 183 190 199 210 214
167 183 183 193 185 185 182 187 183 196 192 199 218 249 257 237 221 223 223 221 228 228 229 228 226 216 211 206 204 199 196 186 180 168 169 173 179 188 199 208 211 222 225
145 149 145 144 168 179 183 185 191 202 189 182 200 205 231 224 228 244 236 232 233 238 241 241 236 226 218 213 212 210 206 194 186 189 188 185 184 186 189 197 212 211 221
121 138 143 153 176 168 178 191 177 197 185 185 209 244 237 230 229 238 236 233 236 242 244 247 250 240 225 221 218 214 212 198 200 202 205 203 201 196 187 185 190 193 211
171 162 147 155 180 185 221 223 215 217 208 246 243 245 239 234 231 229 235 236 238 242 242 246 249 243 235 228 222 218 213 213 213 217 219 220 214 207 204 206 205 203 207
196 176 170 180 202 206 208 217 104 86 82 8 274 263 265 264 255 253 261 253 252 249 244 242 241 231 226 227 226 222 217 218 220 223 224 223 222 222 223 216 214 210 215
189 193 189 188 196 209 188 184 54 322 295 301 294 297 282 275 275 272 270 268 270 270 239 230 234 235 231 228 224 226 226 221 223 225 228 228 232 231 225 219 210 209 216
157 158 184 195 196 190 143 129 77 273 286 288 314 298 299 309 301 293 293 284 282 257 225 233 235 238 237 232 227 222 225 227 226 219 223 228 229 227 212 210 208 211 217
146 159 184 186 190 189 176 193 240 267 294 284 277 285 301 309 315 312 304 295 281 265 234 238 236 232 233 234 238 241 232 228 233 227 228 227 222 218 214 219 217 219 223
182 187 212 226 230 239 245 242 252 260 267 276 292 295 308 323 320 312 299 279 274 270 265 251 246 246 250 251 251 241 238 243 237 239 236 231 224 218 222 226 230 227 225
238 245 240 246 253 257 253 253 255 262 271 289 310 334 330 334 311 310 294 277 272 272 271 278 280 267 254 257 260 265 260 250 246 245 245 245 236 227 226 226 227 223 221
267 274 306 288 267 261 261 255 259 265 272 284 302 317 326 334 333 332 323 309 292 278 285 284 287 280 271 274 268 261 259 255 252 243 240 234 243 232 231 229 230 227 226
310 314 325 304 294 283 280 276 268 276 284 303 310 331 356 9 359 350 343 338 322 298 291 278 276 285 281 279 276 267 261 251 247 250 243 235 230 242 247 238 233 230 224
288 286 273 265 267 283 299 320 325 346 351 4 9 11 12 9 6 6 357 354 350 343 332 315 304 303 307 305 293 283 279 275 271 260 250 242 242 240 235 227 237 245 232
322 282 288 320 342 325 351 38 54 58 55 52 44 37 38 34 29 24 19 17 15 13 9 4 351 345 338 331 324 312 299 295 290 283 269 259 253 248 238 237 245 237 236
64 65 66 62 62 68 73 74 72 68 64 58 55 50 44 39 39 36 29 23 21 26 20 22 10 3 352 348 349 353 351 345 332 308 282 277 274 265 255 247 231 222 230
71 69 69 71 70 71 74 74 73 69 68 65 59 59 56 48 40 43 38 32 24 24 29 26 23 21 8 5 357 349 346 352 343 322 303 282 279 271 255 242 237 228 223